Location: Bodie Mountain
(38.2266°N, 119.0699°W)
Time: 15:16:30
(UTC+00:00)

Daily predictions for brighter satellites

Satellite Brightness Start Highest point End
(mag) Time Altitude Azimuth Time Altitude Azimuth Time Altitude Azimuth
Cosmos 1263 4.3 12:06:02 10° N 12:09:10 78° E 12:12:07 10° S
SL-8 R/B 4.0 12:05:27 10° WSW 12:10:13 66° NNW 12:15:00 10° NE
Cosmos 1464 Rocket 4.2 12:05:28 10° S 12:11:50 88° E 12:18:15 10° N
